Location: Rooftop Observatory
(39.0308°N, 87.1711°W)
Time: 17:54:38
(UTC-05:00)

Daily predictions for brighter satellites

Satellite Brightness Start Highest point End
(mag) Time Altitude Azimuth Time Altitude Azimuth Time Altitude Azimuth
Cosmos 2228 3.5 19:02:18 10° SSE 19:06:21 39° E 19:10:24 10° NNE
YAOGAN 1 4.0 19:06:32 10° S 19:10:40 44° W 19:14:49 10° NNW
SJ-6B 3.9 19:09:38 10° SE 19:12:57 25° ENE 19:16:12 10° NNE
Resurs 01 Rocket 3.3 19:14:52 10° E 19:17:24 15° ENE 19:19:56 10° NNE
Cosmos 1356 Rocket 4.1 19:16:20 10° N 19:20:18 35° ENE 19:24:15 10° SE
Cosmos 1606 Rocket 3.8 19:16:07 10° SSW 19:20:27 73° W 19:24:48 10° N
Cosmos 1953 Rocket 3.5 19:20:01 10° N 19:24:22 90° E 19:28:40 10° S
Cosmos 482 Debris 4.5 19:20:31 10° WNW 19:24:42 53° SW 19:27:15 10° SSE
H-2A R/B 3.2 19:21:24 10° SE 19:24:50 37° ENE 19:28:19 10° N
Thor Agena Rocket 3.5 19:20:09 10° NNE 19:25:24 71° ESE 19:30:33 10° S
Cosmos 2184 Rocket 4.2 19:20:10 10° SSE 19:26:09 48° E 19:32:12 10° NNE
Cosmos 2058 Rocket 3.0 19:21:58 10° S 19:26:17 74° E 19:30:40 10° N
Cosmos 1656 Rocket 3.7 19:22:46 10° NNW 19:28:22 61° ENE 19:33:52 10° SE
FENGYUN 3A 3.6 19:23:58 10° SSE 19:29:19 86° ENE 19:34:43 10° NNW
NOAA 12 4.3 19:26:30 10° S 19:31:43 77° WSW 19:37:00 10° NNW
ORS 1 (USA 231) 4.3 19:35:06 10° W 19:38:02 83° N 19:39:44 23° E
Meteor 2-13 Rocket 4.5 19:32:48 10° S 19:38:54 88° W 19:45:01 10° N
Milstar 3 Cent rocket 3.7 19:35:51 10° SSW 19:39:35 18° S 19:42:10 13° SE
Meteor 1-22 Rocket 4.2 19:35:34 10° S 19:41:11 59° E 19:46:36 10° NNE
Meteor 2-5 Rocket 3.8 19:36:42 10° N 19:42:35 87° W 19:48:18 10° S
USA 234 4.3 19:36:44 10° SSE 19:42:53 43° SW 19:49:05 10° WNW
Cosmos 304 Rocket 3.8 19:38:36 10° SSW 19:43:23 82° WNW 19:48:13 10° NNE
COSMOS 2406 3.2 19:38:00 10° S 19:43:37 64° ESE 19:49:18 10° NNE
BREEZE-M (TANK) 4.0 19:28:40 10° WNW 19:44:47 90° NE 19:48:01 18° SE
Cosmos 1766 3.3 19:41:33 10° S 19:45:23 56° E 19:49:14 10° NNE
Cosmos 1707 3.6 19:41:35 10° NNW 19:45:26 55° W 19:49:16 10° S
Cosmos 2327 Rocket 4.4 19:40:14 10° S 19:46:14 63° E 19:52:15 10° NNE
ISS -2.8 19:43:34 10° SSW 19:46:24 28° SE 19:47:03 26° ESE
Cosmos 1544 3.2 19:45:08 10° S 19:48:37 49° E 19:52:07 10° NNE
Cosmos 1378 4.2 19:49:19 10° NNW 19:52:58 47° W 19:56:35 10° SSW
Cosmos 1125 Rocket 3.8 19:48:25 10° N 19:53:31 46° ENE 19:57:04 19° SE
FengYun 1-2 T 4.2 19:49:23 10° SSE 19:55:00 89° ENE 20:00:36 10° NNW
BREEZE-M DEB (TANK) 3.8 19:40:55 10° SW 19:55:56 80° SSE 19:59:22 19° ENE
Cosmos 1356 4.4 19:53:09 10° NNE 19:56:11 28° ENE 19:56:11 28° ENE
Cosmos 372 Rocket 4.4 19:52:56 10° N 19:57:58 44° ENE 20:00:50 23° SE
In-Cosmos 22 4.2 19:52:42 10° N 19:58:23 66° E 20:04:07 10° SSE
Cosmos 1674 4.4 19:56:25 10° NNE 19:58:04 17° NE 19:58:04 17° NE
Cosmos 1758 4.0 19:59:36 30° E 19:59:51 31° E 20:03:24 10° NNE
Envisat 3.6 19:57:59 23° ESE 20:00:20 36° ENE 20:04:56 10° N
Geosat 4.4 19:55:30 10° SSE 20:00:28 63° WSW 20:05:28 10° NNW
ALOS 3.7 19:57:20 10° SSW 20:01:42 39° W 20:06:06 10° NNW
ATLAS CENTAUR R/B 3.3 19:53:17 10° NW 20:06:31 80° SW 20:09:50 21° SSE
Cosmos 1939 Rocket 4.3 20:14:51 23° NE 20:14:51 23° NE 20:17:02 10° NNE
ATLAS 2AS CENTAUR R/B 4.0 20:10:04 10° NNW 20:16:48 28° NE 20:19:38 23° ENE
Cosmos 1805 3.1 20:14:52 10° S 20:18:46 84° E 20:22:40 10° N
CZ-2D R/B 3.3 20:23:20 31° S 20:25:04 77° WSW 20:28:54 10° NNW
Cosmos 1900 4.3 20:20:27 10° SSW 20:25:30 75° ESE 20:30:40 10° NNE
SL-27 R/B 3.8 20:21:59 10° SSW 20:30:14 - NNE 20:23:47 28° S
NOSS 3-1 (A) 4.2 20:18:48 10° NW 20:26:34 76° WSW 20:33:24 17° SSE
Resurs 1-3 3.4 20:28:09 43° SSE 20:29:33 83° ENE 20:33:57 10° N
Cosmos 2154 Rocket 3.9 20:25:07 10° S 20:31:20 85° E 20:37:37 10° N
Cosmos 546 4.5 20:27:56 10° NW 20:31:53 86° NE 20:31:53 86° NE
Cosmos 540 Rocket 4.3 20:30:09 10° SW 20:35:06 51° WNW 20:40:06 10° N
Cosmos 2341 Rocket 3.8 20:37:19 10° S 20:43:29 75° E 20:49:42 10° N
Cosmos 1953 3.3 20:53:14 42° NNW 20:53:14 42° NNW 20:56:03 10° N
Resurs 01 Rocket 2.4 20:51:54 33° SSW 20:53:27 49° W 20:57:44 10° NNW
FALCON 9 R/B 2.5 20:51:31 10° WSW 20:55:07 53° S 20:55:16 52° S
Cosmos 1697 Rocket 4.0 20:50:37 10° N 20:54:10 26° NE 20:54:10 26° NE
Cosmos 1656 4.5 20:51:13 10° N 20:55:33 37° NE 20:55:33 37° NE
Cosmos 1980 Rocket 4.1 20:52:54 10° N 20:55:07 16° NNE 20:55:07 16° NNE
GP-B 4.1 20:54:18 10° NNW 20:58:32 44° W 21:01:04 22° SW
Nadezhda 3 Rocket 4.4 20:57:38 10° NNW 21:03:49 60° W 21:07:52 22° SSW
Meteor 2-21 4.3 21:06:16 79° E 21:06:16 79° E 21:12:25 10° N
Spot 2 Rocket 4.3 21:05:05 34° SSW 21:06:47 47° W 21:11:39 10° NNW
Cosmos 2285 Rocket 3.9 21:05:40 10° SSW 21:12:05 88° ESE 21:18:34 10° NNE
SL-8 Rocket 4.3 21:35:30 63° NW 21:35:30 63° NW 21:40:58 10° N
H-2A R/B 4.5 21:59:18 14° N 21:59:18 14° N 22:00:04 10° N
ATLAS 2AS CENTAUR R/B 3.3 22:00:44 10° NW 22:07:05 59° NW 22:07:05 59° NW
